Back to catalog

SKYSAT C1

AliveScienceSSO
NORAD 41601·PAYLOAD·🇺🇸 United States

Launched Jun 22, 2016 from Satish Dhawan Space Centre

Loading…

Next Passes (next 24 hours)

TLE

FreshSource: CelesTrak SupGP

Epoch: Sep 14, 2026, 20:49 UTC

1 41601C 16040C   26257.86789352  .00006362  00000+0  17289-3 0  2576
2 41601  96.9514 284.7829 0004130  76.1890 292.6166 15.37605537    12

Track SKYSAT C1 in real time with AllMySat

Download on the App Store